Content
SEND FEEDBACK

Daily
Averages
Monthly
Summary
United States of America

PERRYSVILLE, OHIO


Home > North America > United States > Ohio
Elevation: 1230 feet     Latitude: 40 37N     Longitude: 082 20W

WEATHER
 
SELECT A DAY
Number of Records: 216,191;   Date Range: 1/1/95 - 10/30/14
 
SHARE

PRINT THIS DATA

[ ← Previous Day ]
WEATHER ALMANAC - JANUARY 23, 2013
[ Next Day → ]
[ °C ]   °F
Weather ElementAverageHighLow
Temperature11.3 °F16 °F (2:52 pm)1.9 °F (4:52 am)
Dewpoint4.6 °F12.2 °F (11:05 pm)-2.9 °F (1:52 am)
Humidity75.1 %88 % (10:52 pm)54 % (1:52 pm)
Barometer30.19 in30.32 in (2:52 am)30.02 in (11:05 pm)
Wind Speed4.7 mph11.5 mph (1:52 pm)
Wind Gust18.4 mph (2:52 pm)
Weather ElementAverage
Visibility7.4 mi
Wind DirectionSSE (167.1 °)

Weather ElementTotal
Precipitation---
Heating Degree Days56.1 (Base 65)
Averaged from 31 records on January 23, 2013
WEATHER CONDITIONS BREAKOUT
WIND DIRECTION BREAKOUT
WEATHER BY HOUR - JANUARY 23, 2013
[ °C ]   °F
Local TimeTemperatureDewpointHumidityBarometerVisibilityWind DirectionWind SpeedGust SpeedPrecipitationEventsConditions
1:52 AM3.0 °F-2.9 °F76 %30.31 in10.0 miWSW (240°)4.6 mphClear
2:52 AM3.9 °F-2.9 °F73 %30.32 in10.0 miWSW (250°)4.6 mphClear
3:52 AM3.0 °F-2.9 °F76 %30.32 in10.0 miSW (230°)3.5 mphClear
4:52 AM1.9 °F-2.9 °F80 %30.32 in10.0 miSW (220°)3.5 mphClear
5:52 AM1.9 °F-2.9 °F80 %30.32 in10.0 miSW (220°)4.6 mphMostly Cloudy
6:31 AM3.2 °F-2.2 °F78 %30.22 in10.0 miSW (220°)4.6 mphMostly Cloudy
6:52 AM5.0 °F-0.9 °F76 %30.32 in10.0 miSW (220°)4.6 mphOvercast
7:19 AM5.0 °F-0.4 °F78 %30.23 in10.0 miSSW (210°)5.8 mphOvercast
7:52 AM6.1 °F0.0 °F76 %30.32 in10.0 miSW (220°)6.9 mphOvercast
8:52 AM7.0 °F0.0 °F73 %30.32 in10.0 miWSW (240°)6.9 mphOvercast
9:52 AM9.0 °F1.0 °F70 %30.32 in10.0 miWSW (240°)6.9 mphOvercast
10:52 AM10.9 °F1.9 °F67 %30.31 in10.0 miSW (220°)6.9 mphOvercast
11:52 AM12.9 °F1.9 °F62 %30.29 in10.0 miSW (230°)9.2 mphOvercast
12:52 PM14.0 °F1.0 °F56 %30.25 in10.0 miSSW (210°)10.4 mphOvercast
1:52 PM15.1 °F1.0 °F54 %30.22 in10.0 miSW (220°)11.5 mphOvercast
2:52 PM16.0 °F1.9 °F54 %30.20 in10.0 miWSW (240°)10.4 mph18.4 mphOvercast
3:52 PM16.0 °F3.9 °F59 %30.19 in9.0 miSW (220°)9.2 mphOvercast
4:52 PM15.1 °F7.0 °F70 %30.17 in5.0 miSW (220°)6.9 mphHaze
5:52 PM15.1 °F8.1 °F74 %30.15 in6.0 miSW (220°)5.8 mphHaze
6:52 PM15.1 °F10.0 °F80 %30.14 in4.0 miSSW (210°)5.8 mph0.00 inHaze
7:52 PM15.1 °F9.0 °F77 %30.13 in10.0 miSW (220°)5.8 mphOvercast
8:52 PM15.1 °F9.0 °F77 %30.12 in10.0 miSW (230°)3.5 mphOvercast
9:27 PM15.8 °F10.4 °F79 %30.04 in4.0 miSW (230°)3.5 mph0.00 inSnowLight Snow
9:52 PM15.1 °F10.9 °F84 %30.11 in4.0 miCalm0.00 inSnowLight Snow
10:08 PM15.8 °F10.4 °F79 %30.04 in2.5 miCalm0.00 inSnowLight Snow
10:52 PM15.1 °F12.0 °F88 %30.10 in2.0 miCalm0.00 inSnowLight Snow
11:05 PM15.8 °F12.2 °F86 %30.02 in3.0 miCalm0.00 inSnowLight Snow
11:25 PM15.8 °F12.2 °F86 %30.02 in2.0 miCalm0.00 inSnowLight Snow
11:31 PM15.8 °F12.2 °F86 %30.02 in1.8 miCalm0.00 inSnowLight Snow
11:41 PM15.8 °F12.2 °F86 %30.02 in3.0 miCalm0.00 inSnowLight Snow
11:52 PM15.1 °F12.0 °F88 %30.09 in3.0 miCalm0.00 inSnowLight Snow
Hourly data recorded from KMFD, located miles away from Perrysville, Ohio







STORIES FROM OUR PARTNERS